Radioactive Concentration measured by Seawater Radiation Monitor near Fukushima Daiichi Nuclear Power Station
Date,Time,Cs137(Bq/L),Cs134(Bq/L),Total β(Bq/L)
2016/11/10,00:00,0.90,0.080,ND
2016/11/10,00:10,0.89,0.089,ND
2016/11/10,00:20,0.89,0.088,ND
2016/11/10,00:30,0.89,0.092,ND
2016/11/10,00:40,0.80,0.087,ND
2016/11/10,00:50,0.76,0.10,ND
2016/11/10,01:00,0.81,0.11,ND
2016/11/10,01:10,0.82,0.089,10
2016/11/10,01:20,0.83,0.088,9.3
2016/11/10,01:30,0.86,0.096,ND
2016/11/10,01:40,0.85,0.095,ND
2016/11/10,01:50,0.86,0.090,ND
2016/11/10,02:00,0.89,0.083,ND
2016/11/10,02:10,0.88,0.10,ND
2016/11/10,02:20,0.88,0.10,ND
2016/11/10,02:30,0.84,0.10,ND
2016/11/10,02:40,0.82,0.10,ND
2016/11/10,02:50,0.83,0.10,ND
2016/11/10,03:00,0.81,0.10,ND
2016/11/10,03:10,0.83,0.091,ND
2016/11/10,03:20,0.84,0.090,ND
2016/11/10,03:30,0.84,0.089,ND
2016/11/10,03:40,0.84,0.090,ND
2016/11/10,03:50,0.85,0.085,ND
2016/11/10,04:00,0.89,0.081,ND
2016/11/10,04:10,0.92,0.081,ND
2016/11/10,04:20,0.90,0.081,ND
2016/11/10,04:30,0.91,0.082,9.6
2016/11/10,04:40,0.90,0.093,ND
2016/11/10,04:50,0.90,0.092,ND
2016/11/10,05:00,0.88,0.095,ND
2016/11/10,05:10,0.85,0.11,ND
2016/11/10,05:20,0.90,0.10,ND
2016/11/10,05:30,0.86,0.10,ND
2016/11/10,05:40,0.85,0.11,ND
2016/11/10,05:50,0.86,0.11,ND
2016/11/10,06:00,0.81,0.12,ND
2016/11/10,06:10,0.80,0.12,ND
2016/11/10,06:20,0.87,0.12,ND
2016/11/10,06:30,0.87,0.12,ND
2016/11/10,06:40,0.89,0.11,ND
2016/11/10,06:50,0.90,0.11,ND
2016/11/10,07:00,0.91,0.11,ND
2016/11/10,07:10,0.87,0.10,ND
2016/11/10,07:20,0.89,0.097,ND
2016/11/10,07:30,0.91,0.099,ND
2016/11/10,07:40,0.91,0.10,ND
2016/11/10,07:50,0.88,0.10,ND
2016/11/10,08:00,0.85,0.11,ND
2016/11/10,08:10,0.79,0.12,ND
2016/11/10,08:20,0.90,0.12,ND
2016/11/10,08:30,0.89,0.11,9.2
2016/11/10,08:40,0.89,0.12,ND
2016/11/10,08:50,0.93,0.11,ND
2016/11/10,09:00,0.94,0.11,ND
2016/11/10,09:10,0.93,0.11,ND
2016/11/10,09:20,0.89,0.10,ND
2016/11/10,09:30,0.91,0.11,ND
2016/11/10,09:40,0.94,0.10,ND
2016/11/10,09:50,0.88,0.12,ND
2016/11/10,10:00,0.87,0.11,ND
2016/11/10,10:10,0.88,0.11,ND
2016/11/10,10:20,0.87,0.10,ND
2016/11/10,10:30,0.86,0.11,ND
2016/11/10,10:40,0.86,0.12,ND
2016/11/10,10:50,0.85,0.11,ND
2016/11/10,11:00,0.86,0.11,ND
2016/11/10,11:10,0.82,0.12,ND
2016/11/10,11:20,0.83,0.12,ND
2016/11/10,11:30,0.81,0.11,ND
2016/11/10,11:40,0.78,0.10,ND
2016/11/10,11:50,0.82,0.10,ND
2016/11/10,12:00,0.78,0.089,ND
2016/11/10,12:10,0.80,0.092,ND
2016/11/10,12:20,0.79,0.095,ND
2016/11/10,12:30,0.80,0.091,ND
2016/11/10,12:40,0.77,0.097,ND
2016/11/10,12:50,0.76,0.10,ND
2016/11/10,13:00,0.77,0.095,ND
2016/11/10,13:10,0.78,0.096,ND
2016/11/10,13:20,0.76,0.086,ND
2016/11/10,13:30,0.77,0.092,ND
2016/11/10,13:40,0.76,0.089,ND
2016/11/10,13:50,0.78,0.081,ND
2016/11/10,14:00,0.79,0.080,ND
2016/11/10,14:10,0.77,0.084,ND
2016/11/10,14:20,0.80,0.10,ND
2016/11/10,14:30,0.79,0.090,ND
2016/11/10,14:40,0.80,0.084,ND
2016/11/10,14:50,0.78,0.089,ND
2016/11/10,15:00,0.78,0.090,ND
2016/11/10,15:10,0.82,0.10,ND
2016/11/10,15:20,0.82,0.090,ND
2016/11/10,15:30,0.81,0.091,ND
2016/11/10,15:40,0.84,0.092,ND
2016/11/10,15:50,0.88,0.082,ND
2016/11/10,16:00,0.91,0.083,ND
2016/11/10,16:10,0.92,0.084,ND
2016/11/10,16:20,0.94,0.082,ND
2016/11/10,16:30,1.0,0.095,ND
2016/11/10,16:40,0.99,0.091,ND
2016/11/10,16:50,1.0,0.12,ND
2016/11/10,17:00,1.0,0.11,ND
2016/11/10,17:10,1.1,0.14,ND
2016/11/10,17:20,1.1,0.14,ND
2016/11/10,17:30,1.1,0.14,ND
2016/11/10,17:40,1.2,0.13,ND
2016/11/10,17:50,1.2,0.14,ND
2016/11/10,18:00,1.2,0.15,ND
2016/11/10,18:10,1.1,0.14,ND
2016/11/10,18:20,1.1,0.13,ND
2016/11/10,18:30,1.1,0.14,ND
2016/11/10,18:40,1.1,0.15,ND
2016/11/10,18:50,1.1,0.15,ND
2016/11/10,19:00,1.1,0.15,ND
2016/11/10,19:10,1.1,0.15,ND
2016/11/10,19:20,1.1,0.16,ND
2016/11/10,19:30,1.1,0.15,ND
2016/11/10,19:40,1.2,0.15,ND
2016/11/10,19:50,1.2,0.14,ND
2016/11/10,20:00,1.2,0.13,ND
2016/11/10,20:10,1.1,0.12,ND
2016/11/10,20:20,1.1,0.11,ND
2016/11/10,20:30,1.0,0.099,ND
2016/11/10,20:40,0.90,0.075,ND
2016/11/10,20:50,0.83,0.071,ND
2016/11/10,21:00,0.77,0.067,ND
2016/11/10,21:10,0.73,0.066,ND
2016/11/10,21:20,0.68,0.058,ND
2016/11/10,21:30,0.72,0.068,ND
2016/11/10,21:40,0.72,0.068,ND
2016/11/10,21:50,0.72,0.068,ND
2016/11/10,22:00,0.71,0.059,ND
2016/11/10,22:10,0.69,0.071,ND
2016/11/10,22:20,0.69,0.078,ND
2016/11/10,22:30,0.65,0.084,ND
2016/11/10,22:40,0.64,0.096,ND
2016/11/10,22:50,0.64,0.097,ND
2016/11/10,23:00,0.65,0.095,ND
2016/11/10,23:10,0.64,0.099,ND
2016/11/10,23:20,0.66,0.11,ND
2016/11/10,23:30,0.67,0.11,ND
2016/11/10,23:40,0.66,0.10,ND
2016/11/10,23:50,0.69,0.097,ND
